SKYKRAFT-4D (64898 NORAD) Tracking and Keplerian Element Data

This shows tracking and keplerian element data for the satellite.

Feedback or suggestion? Click here.




ElementValue
Catalog64898
NameSKYKRAFT-4D
Epoch Orbit2055
Epoch Day354.21166483
Epoch Year2025
RAAN57.1008
Inclination97.6933
Eccentricity0.0005865
Argument of Perigee123.4718
Mean Anonmoly236.7063
Mean Motion14.93770024
Decay Rate2.728E-05
L11 64898U 25154K 25354.21166483 .00002728 00000+0 26265-3 0 9994
L22 64898 97.6933 57.1008 0005865 123.4718 236.7063 14.93770024 20551



Live tracking and technical data element details for SKYKRAFT-4D (NORAD 64898). SKYKRAFT-4D can be tracked NOW for your location showing map with azimuth and elevation plus other details from your city location.







IsCatalogInMostPopularTable: catalog: 64898, numindb: 3
Update: records affected: 1



GetName: 64898 SKYKRAFT-4D

Hit Count: updated at: Sat, 11 Apr 2026 21:54:14 GMT